^^
TXWeather Station Historical Data
 
Daily Summary for January 19, 2020 Units:  English    Metric   Both
Daily Weekly Monthly Yearly Custom
  Current: High: Low: Average:
Temperature: 47 °F 61 °F 43 °F 51.2 °F
Dew Point: 32 °F 44 °F 23 °F 30.7 °F
Humidity: 55% 70% 26% 47%
Wind Speed: 4mph 12mph 1mph 7.1mph
Wind Gust: 7mph 22mph - -
WindN - - NE
Pressure: 30.52 in 30.54 in 30.36 in -
Precipitation: 0 in      
Historical Graphs
 
 
Tabular Data for January 19, 2020
Time Temperature Dew Point Pressure Wind Wind Speed Wind Gust Humidity Rainfall Rate (Hourly) solar
00:04 53 °F 44 °F 30.36 in N 9 mph 16 mph 69% 0 in 0 W/m2
00:09 53 °F 44 °F 30.36 in N 8 mph 14 mph 70% 0 in 0 W/m2
00:14 53 °F 43 °F 30.36 in NNE 10 mph 19 mph 69% 0 in 0 W/m2
00:19 53 °F 43 °F 30.36 in N 10 mph 17 mph 69% 0 in 0 W/m2
00:24 53 °F 43 °F 30.36 in N 11 mph 19 mph 68% 0 in 0 W/m2
00:29 53 °F 43 °F 30.36 in NNW 10 mph 18 mph 68% 0 in 0 W/m2
00:34 53 °F 42 °F 30.36 in N 10 mph 19 mph 68% 0 in 0 W/m2
00:39 52 °F 42 °F 30.36 in N 9 mph 18 mph 67% 0 in 0 W/m2
00:44 52 °F 42 °F 30.36 in N 11 mph 17 mph 67% 0 in 0 W/m2
00:49 52 °F 42 °F 30.36 in N 9 mph 17 mph 67% 0 in 0 W/m2
00:54 52 °F 41 °F 30.36 in N 10 mph 18 mph 67% 0 in 0 W/m2
00:59 52 °F 41 °F 30.36 in N 10 mph 18 mph 67% 0 in 0 W/m2
01:04 52 °F 41 °F 30.36 in N 11 mph 22 mph 66% 0 in 0 W/m2
01:09 52 °F 41 °F 30.36 in N 8 mph 14 mph 67% 0 in 0 W/m2
01:14 51 °F 41 °F 30.36 in N 10 mph 18 mph 67% 0 in 0 W/m2
01:19 51 °F 41 °F 30.36 in N 9 mph 18 mph 67% 0 in 0 W/m2
01:24 51 °F 41 °F 30.36 in N 8 mph 12 mph 67% 0 in 0 W/m2
01:29 51 °F 41 °F 30.36 in N 9 mph 14 mph 67% 0 in 0 W/m2
01:34 51 °F 41 °F 30.36 in N 8 mph 15 mph 67% 0 in 0 W/m2
01:39 51 °F 40 °F 30.36 in N 9 mph 15 mph 67% 0 in 0 W/m2
01:44 51 °F 40 °F 30.36 in N 8 mph 14 mph 67% 0 in 0 W/m2
01:49 51 °F 40 °F 30.36 in N 8 mph 13 mph 67% 0 in 0 W/m2
01:54 50 °F 40 °F 30.37 in N 9 mph 17 mph 66% 0 in 0 W/m2
01:59 50 °F 39 °F 30.37 in N 8 mph 17 mph 66% 0 in 0 W/m2
02:04 50 °F 39 °F 30.37 in N 8 mph 16 mph 66% 0 in 0 W/m2
02:09 50 °F 39 °F 30.37 in N 9 mph 17 mph 65% 0 in 0 W/m2
02:14 50 °F 39 °F 30.37 in N 8 mph 15 mph 65% 0 in 0 W/m2
02:19 50 °F 39 °F 30.37 in N 7 mph 19 mph 64% 0 in 0 W/m2
02:24 50 °F 38 °F 30.37 in N 8 mph 19 mph 64% 0 in 0 W/m2
02:29 50 °F 38 °F 30.37 in N 9 mph 15 mph 64% 0 in 0 W/m2
02:34 50 °F 38 °F 30.37 in N 9 mph 15 mph 64% 0 in 0 W/m2
02:39 49 °F 38 °F 30.38 in N 7 mph 14 mph 64% 0 in 0 W/m2
02:44 49 °F 38 °F 30.38 in N 10 mph 20 mph 64% 0 in 0 W/m2
02:49 49 °F 38 °F 30.38 in N 8 mph 20 mph 64% 0 in 0 W/m2
02:54 49 °F 37 °F 30.38 in N 8 mph 17 mph 64% 0 in 0 W/m2
02:59 49 °F 37 °F 30.38 in N 8 mph 17 mph 64% 0 in 0 W/m2
03:04 49 °F 37 °F 30.38 in N 7 mph 17 mph 64% 0 in 0 W/m2
03:09 49 °F 37 °F 30.38 in N 9 mph 15 mph 64% 0 in 0 W/m2
03:14 49 °F 37 °F 30.38 in N 7 mph 15 mph 64% 0 in 0 W/m2
03:19 48 °F 37 °F 30.38 in N 8 mph 15 mph 64% 0 in 0 W/m2
03:24 48 °F 37 °F 30.39 in N 10 mph 16 mph 64% 0 in 0 W/m2
03:29 48 °F 37 °F 30.39 in N 9 mph 16 mph 64% 0 in 0 W/m2
03:34 48 °F 36 °F 30.39 in N 8 mph 16 mph 64% 0 in 0 W/m2
03:39 48 °F 36 °F 30.39 in NNE 9 mph 14 mph 64% 0 in 0 W/m2
03:44 48 °F 36 °F 30.39 in N 8 mph 14 mph 64% 0 in 0 W/m2
03:49 48 °F 36 °F 30.39 in NNE 7 mph 11 mph 64% 0 in 0 W/m2
03:54 47 °F 36 °F 30.39 in N 7 mph 16 mph 64% 0 in 0 W/m2
03:59 47 °F 36 °F 30.39 in N 6 mph 11 mph 64% 0 in 0 W/m2
04:04 47 °F 36 °F 30.39 in N 9 mph 14 mph 64% 0 in 0 W/m2
04:09 47 °F 35 °F 30.39 in N 8 mph 14 mph 64% 0 in 0 W/m2
04:14 47 °F 35 °F 30.39 in N 9 mph 16 mph 64% 0 in 0 W/m2
04:19 47 °F 35 °F 30.39 in N 8 mph 15 mph 63% 0 in 0 W/m2
04:24 47 °F 35 °F 30.38 in N 8 mph 17 mph 63% 0 in 0 W/m2
04:29 47 °F 35 °F 30.39 in N 9 mph 15 mph 63% 0 in 0 W/m2
04:34 46 °F 35 °F 30.39 in NNE 8 mph 15 mph 63% 0 in 0 W/m2
04:39 46 °F 34 °F 30.38 in N 7 mph 16 mph 63% 0 in 0 W/m2
04:44 46 °F 34 °F 30.39 in N 7 mph 16 mph 62% 0 in 0 W/m2
04:49 46 °F 34 °F 30.39 in N 8 mph 17 mph 62% 0 in 0 W/m2
04:54 46 °F 34 °F 30.39 in N 8 mph 16 mph 62% 0 in 0 W/m2
04:59 46 °F 33 °F 30.39 in N 8 mph 14 mph 62% 0 in 0 W/m2
05:04 46 °F 33 °F 30.39 in N 8 mph 18 mph 62% 0 in 0 W/m2
05:09 45 °F 33 °F 30.4 in N 8 mph 18 mph 61% 0 in 0 W/m2
05:14 45 °F 33 °F 30.4 in N 8 mph 16 mph 61% 0 in 0 W/m2
05:19 45 °F 33 °F 30.4 in N 7 mph 16 mph 61% 0 in 0 W/m2
05:24 45 °F 32 °F 30.4 in N 7 mph 16 mph 61% 0 in 0 W/m2
05:29 45 °F 32 °F 30.4 in NNE 7 mph 16 mph 61% 0 in 0 W/m2
05:34 45 °F 32 °F 30.4 in NNE 8 mph 13 mph 61% 0 in 0 W/m2
05:39 45 °F 32 °F 30.4 in N 8 mph 13 mph 61% 0 in 0 W/m2
05:44 45 °F 32 °F 30.4 in N 8 mph 13 mph 60% 0 in 0 W/m2
05:49 44 °F 32 °F 30.4 in N 8 mph 14 mph 60% 0 in 0 W/m2
05:54 44 °F 32 °F 30.4 in N 8 mph 14 mph 60% 0 in 0 W/m2
05:59 44 °F 31 °F 30.41 in N 8 mph 14 mph 60% 0 in 0 W/m2
06:04 44 °F 31 °F 30.41 in N 8 mph 16 mph 60% 0 in 0 W/m2
06:09 44 °F 31 °F 30.42 in N 8 mph 16 mph 60% 0 in 0 W/m2
06:14 44 °F 31 °F 30.42 in N 8 mph 14 mph 60% 0 in 0 W/m2
06:19 44 °F 31 °F 30.42 in N 7 mph 12 mph 60% 0 in 0 W/m2
06:24 44 °F 31 °F 30.43 in N 7 mph 15 mph 60% 0 in 0 W/m2
06:29 44 °F 30 °F 30.43 in N 8 mph 16 mph 59% 0 in 0 W/m2
06:34 44 °F 30 °F 30.43 in N 5 mph 12 mph 59% 0 in 0 W/m2
06:39 43 °F 30 °F 30.44 in N 6 mph 13 mph 59% 0 in 0 W/m2
06:44 43 °F 30 °F 30.44 in N 7 mph 14 mph 59% 0 in 0 W/m2
06:49 43 °F 30 °F 30.45 in N 7 mph 13 mph 59% 0 in 0 W/m2
06:54 43 °F 30 °F 30.45 in N 8 mph 14 mph 59% 0 in 0 W/m2
06:59 43 °F 29 °F 30.45 in N 5 mph 12 mph 58% 0 in 0 W/m2
07:04 43 °F 29 °F 30.45 in NNE 8 mph 13 mph 57% 0 in 0 W/m2
07:09 43 °F 29 °F 30.46 in NNE 6 mph 13 mph 57% 0 in 0 W/m2
07:14 43 °F 29 °F 30.47 in N 5 mph 8 mph 57% 0 in 0 W/m2
07:19 43 °F 28 °F 30.47 in N 5 mph 11 mph 57% 0 in 0 W/m2
07:24 43 °F 28 °F 30.47 in NNE 7 mph 13 mph 57% 0 in 5 W/m2
07:29 43 °F 28 °F 30.48 in N 6 mph 11 mph 56% 0 in 5 W/m2
07:34 43 °F 28 °F 30.48 in NNE 6 mph 13 mph 56% 0 in 7 W/m2
07:39 43 °F 28 °F 30.48 in NNE 7 mph 12 mph 55% 0 in 11 W/m2
07:44 43 °F 28 °F 30.48 in N 5 mph 11 mph 55% 0 in 18 W/m2
07:49 43 °F 28 °F 30.48 in NNE 6 mph 11 mph 55% 0 in 18 W/m2
07:54 43 °F 28 °F 30.49 in NNE 6 mph 12 mph 55% 0 in 25 W/m2
07:59 43 °F 28 °F 30.49 in N 7 mph 14 mph 54% 0 in 44 W/m2
08:04 43 °F 28 °F 30.49 in N 8 mph 12 mph 54% 0 in 44 W/m2
08:09 43 °F 28 °F 30.49 in N 6 mph 12 mph 54% 0 in 79 W/m2
08:14 43 °F 28 °F 30.49 in N 8 mph 14 mph 53% 0 in 95 W/m2
08:19 44 °F 28 °F 30.49 in N 6 mph 14 mph 53% 0 in 95 W/m2
08:24 44 °F 28 °F 30.49 in N 9 mph 15 mph 52% 0 in 113 W/m2
08:29 44 °F 28 °F 30.5 in N 8 mph 15 mph 52% 0 in 134 W/m2
08:34 45 °F 28 °F 30.5 in N 8 mph 13 mph 52% 0 in 135 W/m2
08:39 45 °F 28 °F 30.51 in N 8 mph 16 mph 51% 0 in 179 W/m2
08:44 45 °F 28 °F 30.51 in NNE 9 mph 17 mph 50% 0 in 239 W/m2
08:49 45 °F 28 °F 30.51 in N 11 mph 19 mph 49% 0 in 258 W/m2
08:54 45 °F 27 °F 30.51 in N 11 mph 19 mph 49% 0 in 262 W/m2
08:59 45 °F 27 °F 30.52 in NNE 10 mph 19 mph 48% 0 in 172 W/m2
09:04 46 °F 27 °F 30.52 in N 10 mph 18 mph 48% 0 in 294 W/m2
09:09 46 °F 27 °F 30.52 in NNE 7 mph 17 mph 47% 0 in 301 W/m2
09:14 47 °F 27 °F 30.53 in N 10 mph 18 mph 45% 0 in 336 W/m2
09:19 47 °F 26 °F 30.53 in NNE 10 mph 18 mph 44% 0 in 353 W/m2
09:24 47 °F 27 °F 30.53 in NNE 9 mph 18 mph 44% 0 in 369 W/m2
09:29 47 °F 26 °F 30.53 in NNE 9 mph 16 mph 43% 0 in 385 W/m2
09:34 48 °F 26 °F 30.53 in NNE 8 mph 14 mph 43% 0 in 397 W/m2
09:39 48 °F 26 °F 30.53 in NNE 9 mph 18 mph 41% 0 in 411 W/m2
09:44 48 °F 25 °F 30.53 in NNE 10 mph 19 mph 39% 0 in 427 W/m2
09:49 49 °F 26 °F 30.53 in NNE 7 mph 18 mph 40% 0 in 441 W/m2
09:54 49 °F 24 °F 30.53 in NNE 8 mph 19 mph 38% 0 in 454 W/m2
09:59 49 °F 25 °F 30.53 in N 9 mph 16 mph 37% 0 in 468 W/m2
10:04 49 °F 24 °F 30.53 in NNE 8 mph 14 mph 37% 0 in 482 W/m2
10:09 50 °F 24 °F 30.53 in NNE 9 mph 19 mph 36% 0 in 492 W/m2
10:14 50 °F 23 °F 30.53 in NNE 12 mph 20 mph 34% 0 in 503 W/m2
10:19 50 °F 24 °F 30.54 in NNE 8 mph 14 mph 35% 0 in 517 W/m2
10:24 51 °F 25 °F 30.53 in NNE 6 mph 17 mph 35% 0 in 526 W/m2
10:29 51 °F 24 °F 30.54 in NE 7 mph 14 mph 34% 0 in 536 W/m2
10:34 51 °F 24 °F 30.53 in NNE 8 mph 15 mph 35% 0 in 547 W/m2
10:39 51 °F 25 °F 30.53 in NE 8 mph 17 mph 34% 0 in 557 W/m2
10:44 52 °F 25 °F 30.54 in NNE 7 mph 13 mph 35% 0 in 568 W/m2
10:49 52 °F 25 °F 30.54 in NNE 8 mph 16 mph 35% 0 in 578 W/m2
10:54 52 °F 25 °F 30.53 in NNE 8 mph 16 mph 34% 0 in 585 W/m2
10:59 52 °F 25 °F 30.53 in NNE 10 mph 17 mph 34% 0 in 594 W/m2
11:04 52 °F 25 °F 30.53 in NNE 8 mph 14 mph 34% 0 in 603 W/m2
11:09 53 °F 25 °F 30.53 in NNE 10 mph 16 mph 33% 0 in 612 W/m2
11:14 53 °F 25 °F 30.53 in N 9 mph 19 mph 33% 0 in 617 W/m2
11:19 53 °F 25 °F 30.53 in NNE 9 mph 15 mph 33% 0 in 624 W/m2
11:24 54 °F 26 °F 30.53 in NNE 7 mph 17 mph 34% 0 in 629 W/m2
11:29 54 °F 26 °F 30.53 in NNE 7 mph 18 mph 33% 0 in 638 W/m2
11:34 54 °F 25 °F 30.53 in N 11 mph 18 mph 32% 0 in 643 W/m2
11:39 54 °F 25 °F 30.53 in NNE 8 mph 17 mph 31% 0 in 649 W/m2
11:44 55 °F 25 °F 30.53 in N 10 mph 17 mph 31% 0 in 652 W/m2
11:49 55 °F 25 °F 30.53 in NNE 8 mph 16 mph 31% 0 in 656 W/m2
11:54 55 °F 26 °F 30.53 in NNE 8 mph 16 mph 31% 0 in 661 W/m2
11:59 55 °F 26 °F 30.53 in N 9 mph 17 mph 31% 0 in 664 W/m2
12:04 56 °F 26 °F 30.52 in NNE 8 mph 13 mph 32% 0 in 666 W/m2
12:09 56 °F 26 °F 30.52 in NNE 8 mph 15 mph 31% 0 in 670 W/m2
12:14 56 °F 26 °F 30.52 in NNE 6 mph 15 mph 30% 0 in 670 W/m2
12:19 57 °F 26 °F 30.51 in N 8 mph 17 mph 30% 0 in 673 W/m2
12:24 57 °F 25 °F 30.51 in NNE 9 mph 17 mph 29% 0 in 675 W/m2
12:29 57 °F 26 °F 30.51 in NE 8 mph 15 mph 30% 0 in 675 W/m2
12:34 57 °F 26 °F 30.51 in NNE 7 mph 13 mph 30% 0 in 675 W/m2
12:39 58 °F 27 °F 30.5 in N 9 mph 17 mph 30% 0 in 675 W/m2
12:44 58 °F 26 °F 30.5 in N 9 mph 17 mph 29% 0 in 677 W/m2
12:49 58 °F 26 °F 30.5 in NNE 9 mph 14 mph 29% 0 in 673 W/m2
12:54 58 °F 26 °F 30.49 in N 8 mph 15 mph 29% 0 in 673 W/m2
12:59 59 °F 27 °F 30.49 in NNE 5 mph 13 mph 29% 0 in 671 W/m2
13:04 58 °F 26 °F 30.48 in NNE 6 mph 13 mph 28% 0 in 668 W/m2
13:09 59 °F 27 °F 30.48 in NNE 7 mph 13 mph 29% 0 in 666 W/m2
13:14 59 °F 27 °F 30.48 in N 10 mph 19 mph 28% 0 in 663 W/m2
13:19 59 °F 26 °F 30.47 in NNE 8 mph 19 mph 27% 0 in 659 W/m2
13:24 59 °F 25 °F 30.47 in NNE 7 mph 19 mph 27% 0 in 656 W/m2
13:29 59 °F 27 °F 30.47 in NNE 7 mph 19 mph 28% 0 in 652 W/m2
13:34 60 °F 26 °F 30.46 in N 11 mph 17 mph 26% 0 in 645 W/m2
13:39 59 °F 26 °F 30.47 in NNE 11 mph 21 mph 27% 0 in 640 W/m2
13:44 60 °F 27 °F 30.46 in N 7 mph 17 mph 28% 0 in 638 W/m2
13:49 60 °F 26 °F 30.46 in NNE 9 mph 19 mph 27% 0 in 628 W/m2
13:54 60 °F 25 °F 30.46 in NE 7 mph 15 mph 26% 0 in 622 W/m2
13:59 60 °F 27 °F 30.45 in NNE 7 mph 13 mph 28% 0 in 615 W/m2
14:04 60 °F 26 °F 30.45 in NNE 12 mph 20 mph 27% 0 in 608 W/m2
14:09 60 °F 26 °F 30.45 in NNE 8 mph 17 mph 26% 0 in 599 W/m2
14:14 60 °F 26 °F 30.45 in NNE 8 mph 17 mph 27% 0 in 591 W/m2
14:19 61 °F 28 °F 30.45 in NNE 7 mph 13 mph 28% 0 in 584 W/m2
14:24 61 °F 28 °F 30.45 in NNE 8 mph 16 mph 28% 0 in 570 W/m2
14:29 61 °F 28 °F 30.45 in N 8 mph 13 mph 28% 0 in 561 W/m2
14:34 61 °F 28 °F 30.45 in N 8 mph 16 mph 28% 0 in 554 W/m2
14:39 61 °F 28 °F 30.45 in NNE 10 mph 14 mph 28% 0 in 541 W/m2
14:44 61 °F 28 °F 30.45 in NNE 9 mph 16 mph 28% 0 in 533 W/m2
14:49 61 °F 29 °F 30.45 in NNE 8 mph 17 mph 29% 0 in 519 W/m2
14:54 61 °F 29 °F 30.45 in N 8 mph 17 mph 29% 0 in 510 W/m2
14:59 61 °F 29 °F 30.45 in N 7 mph 12 mph 29% 0 in 497 W/m2
15:04 60 °F 28 °F 30.45 in N 10 mph 14 mph 29% 0 in 485 W/m2
15:09 60 °F 28 °F 30.45 in N 6 mph 13 mph 29% 0 in 473 W/m2
15:14 60 °F 28 °F 30.45 in NNE 7 mph 13 mph 29% 0 in 462 W/m2
15:19 61 °F 29 °F 30.45 in N 10 mph 15 mph 29% 0 in 446 W/m2
15:24 60 °F 28 °F 30.45 in N 12 mph 17 mph 29% 0 in 434 W/m2
15:29 60 °F 28 °F 30.45 in N 11 mph 20 mph 30% 0 in 422 W/m2
15:34 60 °F 28 °F 30.45 in N 9 mph 15 mph 29% 0 in 408 W/m2
15:39 60 °F 28 °F 30.45 in N 6 mph 17 mph 30% 0 in 392 W/m2
15:44 60 °F 28 °F 30.45 in N 10 mph 19 mph 29% 0 in 376 W/m2
15:49 59 °F 28 °F 30.45 in N 9 mph 14 mph 30% 0 in 364 W/m2
15:54 59 °F 28 °F 30.45 in NNE 8 mph 14 mph 30% 0 in 350 W/m2
15:59 59 °F 28 °F 30.45 in NNE 7 mph 14 mph 30% 0 in 334 W/m2
16:04 59 °F 29 °F 30.45 in N 10 mph 16 mph 31% 0 in 318 W/m2
16:09 59 °F 29 °F 30.45 in N 8 mph 14 mph 31% 0 in 302 W/m2
16:14 59 °F 30 °F 30.45 in N 6 mph 13 mph 33% 0 in 287 W/m2
16:19 59 °F 30 °F 30.45 in NNE 6 mph 10 mph 32% 0 in 269 W/m2
16:24 59 °F 30 °F 30.45 in N 9 mph 13 mph 32% 0 in 255 W/m2
16:29 58 °F 29 °F 30.45 in N 9 mph 14 mph 33% 0 in 236 W/m2
16:34 58 °F 29 °F 30.45 in N 8 mph 14 mph 33% 0 in 216 W/m2
16:39 58 °F 30 °F 30.45 in N 6 mph 14 mph 34% 0 in 185 W/m2
16:44 58 °F 30 °F 30.46 in N 6 mph 11 mph 34% 0 in 172 W/m2
16:49 57 °F 30 °F 30.46 in NNE 6 mph 13 mph 34% 0 in 54 W/m2
16:54 57 °F 29 °F 30.46 in N 8 mph 13 mph 34% 0 in 46 W/m2
16:59 57 °F 29 °F 30.46 in NNE 7 mph 13 mph 34% 0 in 42 W/m2
17:04 57 °F 29 °F 30.45 in N 7 mph 13 mph 34% 0 in 69 W/m2
17:09 57 °F 29 °F 30.46 in N 7 mph 12 mph 35% 0 in 65 W/m2
17:14 56 °F 29 °F 30.46 in N 7 mph 12 mph 34% 0 in 63 W/m2
17:19 56 °F 29 °F 30.46 in N 7 mph 17 mph 35% 0 in 32 W/m2
17:24 56 °F 28 °F 30.46 in NNE 8 mph 17 mph 35% 0 in 21 W/m2
17:29 55 °F 28 °F 30.47 in N 7 mph 12 mph 35% 0 in 16 W/m2
17:34 55 °F 28 °F 30.47 in N 6 mph 11 mph 36% 0 in 11 W/m2
17:39 55 °F 29 °F 30.47 in NNE 4 mph 11 mph 36% 0 in 9 W/m2
17:44 54 °F 29 °F 30.47 in NNE 4 mph 10 mph 37% 0 in 7 W/m2
17:49 54 °F 29 °F 30.47 in N 3 mph 7 mph 37% 0 in 5 W/m2
17:54 54 °F 29 °F 30.47 in NNE 2 mph 5 mph 38% 0 in 0 W/m2
17:59 53 °F 29 °F 30.47 in NNE 2 mph 5 mph 39% 0 in 0 W/m2
18:04 53 °F 29 °F 30.47 in N 3 mph 6 mph 40% 0 in 0 W/m2
18:09 53 °F 30 °F 30.47 in NNE 2 mph 5 mph 41% 0 in 0 W/m2
18:14 53 °F 30 °F 30.47 in NNE 3 mph 4 mph 41% 0 in 0 W/m2
18:19 52 °F 30 °F 30.47 in NE 2 mph 4 mph 41% 0 in 0 W/m2
18:24 52 °F 30 °F 30.47 in NNE 1 mph 3 mph 42% 0 in 0 W/m2
18:29 52 °F 30 °F 30.47 in NNE 2 mph 3 mph 43% 0 in 0 W/m2
18:34 52 °F 30 °F 30.47 in NNE 2 mph 5 mph 43% 0 in 0 W/m2
18:39 51 °F 30 °F 30.47 in NNE 3 mph 5 mph 43% 0 in 0 W/m2
18:44 51 °F 30 °F 30.48 in NNE 3 mph 6 mph 44% 0 in 0 W/m2
18:49 51 °F 30 °F 30.48 in NNE 2 mph 4 mph 44% 0 in 0 W/m2
18:54 51 °F 30 °F 30.48 in NNE 3 mph 5 mph 44% 0 in 0 W/m2
18:59 51 °F 30 °F 30.48 in NNE 2 mph 4 mph 45% 0 in 0 W/m2
19:04 51 °F 30 °F 30.49 in N 2 mph 4 mph 45% 0 in 0 W/m2
19:09 50 °F 30 °F 30.49 in NNE 3 mph 4 mph 45% 0 in 0 W/m2
19:14 50 °F 30 °F 30.49 in NNE 2 mph 4 mph 45% 0 in 0 W/m2
19:19 50 °F 30 °F 30.49 in NNE 2 mph 4 mph 46% 0 in 0 W/m2
19:24 50 °F 30 °F 30.49 in NNE 2 mph 3 mph 46% 0 in 0 W/m2
19:29 50 °F 31 °F 30.49 in NNE 1 mph 3 mph 48% 0 in 0 W/m2
19:34 49 °F 31 °F 30.49 in NNE 2 mph 3 mph 49% 0 in 0 W/m2
19:39 49 °F 31 °F 30.49 in NNE 2 mph 4 mph 49% 0 in 0 W/m2
19:44 49 °F 31 °F 30.5 in N 2 mph 4 mph 49% 0 in 0 W/m2
19:49 49 °F 31 °F 30.5 in N 2 mph 4 mph 50% 0 in 0 W/m2
19:54 49 °F 31 °F 30.5 in N 2 mph 4 mph 51% 0 in 0 W/m2
19:59 48 °F 31 °F 30.5 in N 2 mph 4 mph 51% 0 in 0 W/m2
20:04 48 °F 31 °F 30.5 in N 2 mph 3 mph 51% 0 in 0 W/m2
20:09 48 °F 31 °F 30.5 in NNE 2 mph 3 mph 51% 0 in 0 W/m2
20:14 48 °F 31 °F 30.5 in NNE 1 mph 3 mph 52% 0 in 0 W/m2
20:19 48 °F 31 °F 30.51 in NNE 1 mph 3 mph 52% 0 in 0 W/m2
20:24 48 °F 31 °F 30.51 in NNE 1 mph 2 mph 53% 0 in 0 W/m2
20:29 48 °F 31 °F 30.51 in NNE 1 mph 2 mph 53% 0 in 0 W/m2
20:34 47 °F 32 °F 30.51 in NNE 1 mph 2 mph 54% 0 in 0 W/m2
20:39 47 °F 32 °F 30.51 in NNE 1 mph 2 mph 54% 0 in 0 W/m2
20:44 47 °F 32 °F 30.52 in NNE 1 mph 2 mph 56% 0 in 0 W/m2
20:49 47 °F 32 °F 30.52 in NNE 2 mph 3 mph 57% 0 in 0 W/m2
20:54 47 °F 32 °F 30.52 in N 3 mph 4 mph 56% 0 in 0 W/m2
20:59 47 °F 32 °F 30.52 in NNE 3 mph 5 mph 56% 0 in 0 W/m2
21:04 47 °F 32 °F 30.52 in N 3 mph 5 mph 55% 0 in 0 W/m2
21:09 47 °F 32 °F 30.52 in N 4 mph 7 mph 55% 0 in 0 W/m2
Villages of Bridgestone, Spring, TX USA
Compliments of Weather Underground - 2 mb